Valladolid Airport, Spain

3:56 PM CEST on June 25, 2017 (GMT +0200)
Villanubla

Weather History for LEVD - April, 2013

Change the Weather History Date:

Tuesday, April 30, 2013

  Actual Average Record
Temperature  
Mean Temperature 40 °F -  
Max Temperature 44 °F - - ()
Min Temperature 37 °F - - ()
Degree Days  
Heating Degree Days 24    
Moisture  
Dew Point 39 °F    
Average Humidity 93    
Maximum Humidity 100    
Minimum Humidity 81    
Precipitation  
Precipitation 0.00 in - - ()
Sea Level Pressure  
Sea Level Pressure 29.89 in    
Wind  
Wind Speed 10 mph ()    
Max Wind Speed 16 mph    
Max Gust Speed -    
Visibility 6.2 miles    
Events Rain    
T = Trace of Precipitation, MM = Missing Value Source: Averaged Metar Reports

Daily Weather History Graph

Daily Weather History Graph

Search for Another Location

Airport or City:

Trip Planner

Search our weather history database for the weather conditions in past years. The results will help you decide how hot, cold, wet, or windy it might be!

Date:

Astronomy

Apr. 30, 2013 Rise Set
Actual Time 7:17 AM CEST 9:16 PM CEST
Civil Twilight 6:47 AM CEST 9:46 PM CEST
Nautical Twilight 6:10 AM CEST 10:23 PM CEST
Astronomical Twilight 5:30 AM CEST 11:04 PM CEST
Moon 1:28 AM CEST (4/30) 11:28 AM CEST (4/30)
Length of Visible Light 14h 59m
Length of Day
13h 59m
Waning Gibbous, 73% of the Moon is Illuminated
Apr 30
Waning Gibbous
May 2
Last Quarter
May 10
New
May 18
First Quarter
May 25
Full

Hourly Weather History & Observations

Time (CEST) Temp. Windchill Dew Point Humidity Pressure Visibility Wind Dir Wind Speed Gust Speed Precip Events Conditions
7:00 AM 37.4 °F 29.3 °F 35.6 °F 93% 29.86 in 6.2 mi ENE 12.7 mph - N/A Rain Rain
7:30 AM 37.4 °F 29.3 °F 35.6 °F 93% 29.86 in 6.2 mi NE 12.7 mph - N/A Rain Rain
8:00 AM 37.4 °F 30.3 °F 37.4 °F 100% 29.86 in 6.2 mi ENE 10.4 mph - N/A Rain Rain
8:30 AM 37.4 °F 31.4 °F 37.4 °F 100% 29.89 in 6.2 mi East 8.1 mph - N/A Rain Heavy Rain
9:00 AM 37.4 °F 30.3 °F 37.4 °F 100% 29.89 in 6.2 mi ENE 10.4 mph - N/A Rain Light Rain
9:30 AM 39.2 °F 32.0 °F 39.2 °F 100% 29.89 in 6.2 mi NE 11.5 mph - N/A Rain Light Rain
10:00 AM 39.2 °F 32.0 °F 39.2 °F 100% 29.89 in 6.2 mi ENE 11.5 mph - N/A Rain Rain
10:30 AM 39.2 °F 32.5 °F 39.2 °F 100% 29.89 in 6.2 mi ENE 10.4 mph - N/A Rain Light Rain
11:00 AM 39.2 °F 31.2 °F 39.2 °F 100% 29.89 in 6.2 mi NE 13.8 mph - N/A Rain Rain
11:30 AM 41.0 °F 33.9 °F 39.2 °F 93% 29.89 in 6.2 mi NE 12.7 mph - N/A Rain Rain
12:00 PM 41.0 °F 32.8 °F 39.2 °F 93% 29.89 in 6.2 mi NE 16.1 mph - N/A Rain Rain
1:30 PM 41.0 °F 34.3 °F 39.2 °F 93% 29.92 in 6.2 mi NNE 11.5 mph - N/A Rain Light Rain
2:00 PM 42.8 °F 36.6 °F 41.0 °F 93% 29.92 in 6.2 mi North 11.5 mph - N/A   Overcast
2:30 PM 42.8 °F 37.5 °F 41.0 °F 93% 29.92 in 6.2 mi North 9.2 mph - N/A   Overcast
3:00 PM 42.8 °F 38.0 °F 41.0 °F 93% 29.89 in 6.2 mi North 8.1 mph - N/A   Overcast
3:30 PM 44.6 °F 39.2 °F 41.0 °F 87% 29.89 in 6.2 mi North 10.4 mph - N/A   Overcast
4:00 PM 44.6 °F 39.2 °F 41.0 °F 87% 29.89 in 6.2 mi North 10.4 mph - N/A   Mostly Cloudy
4:30 PM 44.6 °F 38.4 °F 41.0 °F 87% 29.89 in 6.2 mi North 12.7 mph - N/A   Mostly Cloudy
5:00 PM 44.6 °F 39.2 °F 39.2 °F 81% 29.89 in 6.2 mi North 10.4 mph - N/A   Mostly Cloudy
5:30 PM 44.6 °F 39.2 °F 39.2 °F 81% 29.89 in 6.2 mi NNW 10.4 mph - N/A   Mostly Cloudy
6:00 PM 44.6 °F 39.2 °F 41.0 °F 87% 29.89 in 6.2 mi North 10.4 mph - N/A   Mostly Cloudy
6:30 PM 44.6 °F 38.8 °F 41.0 °F 87% 29.89 in 6.2 mi NNW 11.5 mph - N/A   Mostly Cloudy
7:00 PM 42.8 °F 36.6 °F 39.2 °F 87% 29.89 in 6.2 mi NNW 11.5 mph - N/A   Mostly Cloudy
7:30 PM 41.0 °F 33.5 °F 39.2 °F 93% 29.89 in 6.2 mi NNW 13.8 mph - N/A Rain Rain
8:00 PM 41.0 °F 33.9 °F 39.2 °F 93% 29.89 in 6.2 mi North 12.7 mph - N/A Rain Rain
8:30 PM 41.0 °F 33.9 °F 39.2 °F 93% 29.92 in 6.2 mi North 12.7 mph - N/A   Scattered Clouds
9:00 PM 39.2 °F 32.0 °F 39.2 °F 100% 29.92 in 6.2 mi North 11.5 mph - N/A Rain Rain
9:30 PM 39.2 °F 32.0 °F 39.2 °F 100% 29.92 in 6.2 mi North 11.5 mph - N/A Rain Rain